www.pogodaiklimat.ru

Погода и климат >> Архив погоды >> Казахстан >> Аяккум


АРХИВ ПОГОДЫ в Аяккуме

Время (UTC), дата Ветер
(напр.,м/с)
 
Видим.   Явления Облачность Т
(С)
Тd
(С)
f
(%)
Тe
(С)
Тes
(С)
Комфортность P
(гПа)
Po
(гПа)
Тmin
(С)
Tmax
(С)
R
(мм)
R24
(мм)
S
(см)
15 18.06 СЗ 1 50 км 4/0
[Ci fib]
+28.8 +4.5 21 +27 +28 жарко 1009.4 996.4 +31.0
18 18.06 штиль 0 н/о 3/0
[Ac trans]
+20.5 +5.3 37 +21 +21 комфорт 1010.1 996.9 +31.0
21 18.06 штиль 0 н/о ясно +16.0 +5.3 49 +16 +16 1010.4 996.9
00 19.06 штиль 0 50 км 1/0
[Ac cast]
+13.0 +3.0 51 +13 +13 1010.8 997.1
03 19.06 штиль 0 50 км 3/0
[Ci sp]
+20.1 +6.7 42 +21 +26 комфорт 1011.2 997.9
06 19.06 штиль 0 50 км 3/0
[Ci fib]
+30.2 +7.7 24 +29 +49 жарко 1010.9 998.0 +12.0
09 19.06 штиль 0 50 км 3/0
[Ci fib]
+32.0 +7.1 21 +30 +53 опасность
солнечного
удара
1010.2 997.4
12 19.06 СЗ 2 50 км 4/4 600 м
[Cu hum]
+33.6 +4.5 16 +31 +36 жарко 1008.7 996.0
15 19.06 СЗ 7 10 км пыльный позёмок 3/0
[Ac cast]
+31.6 +8.8 24 +31 +31 жарко 1009.4 996.6 +34.0
18 19.06 штиль 0 н/о {метель} 3/0
[Ac trans]
+25.3 +10.6 40 +26 +26 жарко 1010.0 997.0 +34.0
21 19.06 штиль 0 н/о 3/0
[Ac trans]
+20.8 +9.2 47 +22 +22 комфорт 1009.8 996.5
00 20.06 Ю 1 20 км 4/0
[Ac trans]
+17.3 +6.5 49 +18 +18 1010.1 996.7
03 20.06 Ю 2 50 км 8/0
[Ac und]
+23.4 +6.8 34 +24 +26 комфорт 1010.1 997.0
06 20.06 ЮЗ 3 50 км 5/0
[Ac cast]
+32.4 +8.5 23 +31 +40 жарко 1010.6 997.8 +15.3
09 20.06 ЮЗ 4 50 км 8/0
[Ac und]
+34.0 +5.9 17 +32 +37 жарко 1008.5 995.8
12 20.06 СЗ 6 50 км 8/8
[Cb cap]
+32.6 +9.4 24 +32 +32 жарко 1008.0 995.3
15 20.06 С 2 20 км 9/9 300 м
[Cb cap]
+29.6 +12.2 34 +30 +30 жарко 1008.9 996.0 +35.0
18 20.06 штиль 0 н/о 8/8 300 м
[Cb cap]
+26.0 +12.3 43 +28 +28 жарко 1009.0 996.0 +35.0
21 20.06 штиль 0 н/о 6/6 300 м
[Cb cap]
+24.0 +12.9 50 +26 +26 жарко 1008.9 995.8
00 21.06 штиль 0 50 км 5/5 300 м
[Cb cap]
+22.1 +13.2 57 +25 +25 комфорт 1009.3 996.1
03 21.06 штиль 0 50 км 3/3 1000 м
[Cu med, cong]
+25.0 +13.4 49 +27 +31 жарко 1011.0 997.9
06 21.06 штиль 0 50 км ясно +31.3 +11.0 29 +31 +52 опасность
солнечного
удара
1009.6 996.7 +22.1
09 21.06 штиль 0 50 км 3/3
[Cu med, cong]
+33.9 +11.1 25 +33 +50 жарко 1008.4 995.8
12 21.06 СВ 3 50 км 4/4 1000 м
[Cu med, cong]
+34.1 +7.6 19 +32 +36 жарко 1008.4 995.7
15 21.06 штиль 0 50 км 3/0
[Ac und]
+33.7 +16.8 37 +37 +37 очень
душно
1008.4 995.7 +35.0
18 21.06 штиль 0 н/о 3/0
[Ac trans]
+25.8 +9.4 35 +26 +26 жарко 1010.2 997.2 +35.0
21 21.06 штиль 0 н/о ясно +21.0 +7.0 40 +22 +22 комфорт 1011.0 997.7
00 22.06 ЮВ 1 50 км 3/0
[Ac lent]
+17.2 +8.2 55 +18 +18 1012.4 998.8
03 22.06 штиль 0 50 км 9/0
[Ci fib]
+23.4 +10.4 44 +25 +30 комфорт 1013.3 1000.0
06 22.06 штиль 0 50 км ясно +33.6 +10.0 24 +33 +54 опасность
солнечного
удара
1013.8 1001.0 +17.2
09 22.06 С 3 50 км 8/8 1000 м
[Cu hum]
+36.1 +6.7 16 +34 +37 очень
жарко
1013.4 1000.7
12 22.06 С 2 50 км 6/6 1000 м
[Cu hum]
+36.3 +5.8 15 +34 +37 очень
жарко
1013.9 1001.2
15 22.06 штиль 0 50 км 1/1 1000 м
[Cu hum]
+35.4 +8.2 19 +34 +34 очень
жарко
1013.9 1001.2 +37.2
18 22.06 штиль 0 н/о 3/0
[Ac trans]
+28.5 +10.5 33 +29 +29 жарко 1014.3 1001.4 +37.2
21 22.06 штиль 0 н/о ясно +22.4 +6.1 35 +23 +23 комфорт 1014.0 1000.7
00 23.06 В 2 50 км ясно +21.0 +6.7 39 +23 +23 комфорт 1016.1 1002.7
03 23.06 СВ 4 50 км 3/0
[Ac cuf]
+25.5 +9.3 36 +26 +28 жарко 1016.9 1003.8
06 23.06 В 3 50 км 1/0
[Ac cuf]
+31.6 +9.5 26 +31 +43 жарко 1017.2 1004.3 +19.5
09 23.06 В 2 50 км ясно +35.2 +10.2 22 +34 +52 опасность
солнечного
удара
1016.6 1003.9
12 23.06 В 2 50 км ясно +36.4 +8.2 18 +35 +43 очень
жарко
1015.6 1002.9
15 23.06 СЗ 2 50 км 3/3 1000 м
[Cu hum]
+34.7 +7.7 19 +33 +33 жарко 1015.3 1002.5 +37.5
18 23.06 СЗ 2 н/о ясно +28.6 +7.3 26 +28 +28 жарко 1015.5 1002.5 +37.5
21 23.06 штиль 0 н/о ясно +25.0 +8.5 35 +25 +25 комфорт 1015.7 1002.5
00 24.06 штиль 0 50 км ясно +20.8 +9.7 49 +22 +22 комфорт 1016.0 1002.6
03 24.06 штиль 0 50 км 3/0
[Ac cuf]
+25.6 +10.2 38 +26 +31 жарко 1016.9 1003.7
06 24.06 Ю 2 50 км 3/0
[Ac und]
+34.5 +10.3 23 +34 +46 очень
жарко
1015.7 1003.0 +20.3
09 24.06 З 2 50 км 3/3 600 м
[Cu hum]
+39.7 +8.1 15 +38 +50 очень
жарко
1013.9 1001.4
12 24.06 З 3 50 км 4/4 1000 м
[Sc]
+39.3 +4.5 12 +36 +41 очень
жарко
1013.0 1000.4
15 24.06 ЮЗ 2 50 км 4/0
[Ac und]
+37.1 +10.5 20 +36 +36 очень
жарко
1012.5 999.8 +40.5
18 24.06 штиль 0 н/о ясно +28.2 +8.2 28 +28 +28 жарко 1012.9 999.9 +40.5
21 24.06 штиль 0 н/о ясно +24.4 +6.7 32 +24 +24 комфорт 1013.0 999.8
00 25.06 ЮЗ 3 50 км ясно +23.5 +5.0 30 +23 +23 комфорт 1013.4 1000.2
03 25.06 штиль 0 50 км 1/0
[Ac trans]
+28.2 +9.5 31 +28 +34 жарко 1012.5 999.5
06 25.06 З 1 50 км 1/0
[Ci fib]
+38.0 +9.9 18 +36 +54 опасность
солнечного
удара
1011.1 998.6 +23.2
12 25.06 З 6 50 км 3/3 1000 м
[Cu med, cong]
+40.0 +7.8 14 +38 +40 очень
жарко
1009.4 996.9

 

Местоположение метеостанции Аяккум (Актюбинская область, Казахстан): широта 46.72 долгота 59.17 высота над уровнем моря 114 м.

В архиве по умолчанию представлена погода в Аяккуме за последнюю неделю. Архивные данные за месяц целиком и за предыдущие месяцы, начиная с января 2011 года, Вы можете получить, выбрав интересующий диапазон дат из раскрывающегося списка и нажав кнопку "Ввод!".


*Определитесь, кто Вы:
робот инопланетянин человек

Внимание! Время в таблицах - всемирное. Для получения местного времени необходимо прибавить поправку, которая равна 5 ч.

Смотрите также архив погоды в соседних городах и на ближайших метеорологических станциях:

Погода в Шалкаре (Актюбинская область, Казахстан) (130 км)
Погода в Аральске (Кызылординская область, Казахстан) (189 км)
Погода в Мугалжаре (Актюбинская область, Казахстан) (218 км)
Погода в Жагабулаке (Актюбинская область, Казахстан) (237 км)
Погода в Эмбе (Актюбинская область, Казахстан) (246 км)
Погода в Казалинске (Кызылординская область, Казахстан) (250 км)
Погода в Каукее (Кызылординская область, Казахстан) (259 км)
Погода в Иргизе (Актюбинская область, Казахстан) (263 км)
Погода в Саме (Мангистауская область, Казахстан) (277 км)
Погода в Каракалпакии (Каракалпакстан, Узбекистан) (303 км)

Пояснения к столбцам:

Ветер - указаны скорость ветра в м/с - средняя за 10 мин, порывы в срок и между сроками (в фигурных скобках) и направление, откуда дует ветер: С - северный, СВ - северо-восточный, В - восточный, ЮВ - юго-восточный, Ю - южный, ЮЗ - юго-западный, З - западный, СЗ - северо-западный.
Видимость - горизонтальная дальность видимости в метрах или километрах. При видимости от 1 до 10 км при отсутствии осадков обычно наблюдается дымка, при ухудшении видимости до 1 км и менее - туман. В сухую погоду видимость может ухудшаться дымом, пылью или мглою.
Явления - указаны атмосферные явления, наблюдавшиеся в срок или в последний час перед сроком; фигурными скобками обозначены явления, наблюдавшиеся между сроками (за 1-3 часа до срока); квадратными скобками обозначены град или гололедные отложения с указанием их диаметра в мм.
Облачность - указаны через наклонную черту общая и нижняя облачность в баллах и высота нижней границы облаков в метрах; квадратными скобками обозначены формы облаков: Ci - перистые, Cs - перисто-слоистые, Cc - перисто-кучевые, Ac - высококучевые, As - высокослоистые, Sc - слоисто-кучевые, Ns - слоисто-дождевые, Cu - кучевые, Cb - кучево-дождевые. Подробнее классификацию облаков см. в Атласе облаков (PDF).
T - Температура воздуха - температура, измеренная на высоте 2 м над землей.
Td - Температура точки росы - температура, при понижении до которой содержащийся в воздухе водяной пар достигнет насыщения.
f - Относительная влажность воздуха - влажноcть воздуха, измеренная на высоте 2 м над землей.
Te - Эффективная температура - температура, которую ощущает одетый по сезону человек в тени. Характеристика душности погоды. При расчете учитывается влияние влажности воздуха и скорости ветра на теплоощущения человека.
Tes - Эффективная температура на солнце - температура, которую ощущает человек, с поправкой на солнечный нагрев. Характеристика знойности погоды. Зависит от высоты солнца над горизонтом, облачности и скорости ветра. Ночью, в пасмурную погоду, а также при ветре 12 м/с и более поправка равна нулю.
P - Атмосферное давление - приведенное к уровню моря атмосферное давление.
Po - Атмосферное давление - измеренное на уровне метеостанции атмосферное давление.
Tmin - Минимальная температура - минимум температуры воздуха на высоте 2 м над землей.
Tmax - Максимальная температура - максимум температуры воздуха на высоте 2 м над землей.
R - Количество осадков - Количество выпавших осадков за период времени, мм. При наведении курсора мыши на число - период времени, за который выпало указанное количество осадков.
R24 - Количество осадков - Количество выпавших осадков за 24 часа, мм.
S - Снежный покров - Высота снежного покрова, см. При наведении курсора мыши на число - состояние снежного покрова и степень покрытия местности в баллах.